Location: Asheville, NC
(35.6000°N, 82.5500°W)
Time: 03:27:51
(UTC-04:00)

CUTE 1.7 + AOD 2 - Pass Details

Date: 18 March 2018
Orbit: 594 x 613 km, 97.5° (Epoch: 17 June)

Event Time Altitude Azimuth Distance (km) Brightness Sun altitude
Rises 20:20:56 0° 195° (SSW) 2,816 ? -9.1°
Reaches altitude 10° 20:23:24 10° 210° (SSW) 1,921 ? -9.6°
Maximum altitude 20:26:49 24° 264° (W) 1,243 ? -10.3°
Drops below altitude 10° 20:30:15 10° 319° (NW) 1,941 ? -10.9°
Sets 20:32:46 0° 334° (NNW) 2,852 ? -11.5°
